MSR69 HELX-HECA

Flight info

Callsign MSR69
Flight time 1h 3m
Altitude 24000
Route LXR A727 CVO
Aircraft A320/M-SDE3FGHIRWY/LB1

Departure

Time 2026-05-07 13:05
Airport Luxor International Airport (HELX)

Arrival

Time 2026-05-07 14:08
Airport Cairo International Airport (HECA)
Time Latitude Longitude Altitude Speed Heading
2026-05-07 12:48 25.67466 32.70225 316 ft 0 kts 295°
2026-05-07 12:56 25.67457 32.70249 290 ft 4 kts 292°
2026-05-07 12:56 25.67447 32.70277 293 ft 4 kts 288°
2026-05-07 12:56 25.67440 32.70306 290 ft 4 kts 277°
2026-05-07 12:56 25.67440 32.70334 296 ft 4 kts 242°
2026-05-07 12:57 25.67449 32.70346 293 ft 1 kts 209°
2026-05-07 12:57 25.67451 32.70347 293 ft 0 kts 209°
2026-05-07 12:59 25.67450 32.70346 293 ft 2 kts 209°
2026-05-07 12:59 25.67425 32.70332 290 ft 7 kts 207°
2026-05-07 12:59 25.67374 32.70303 289 ft 10 kts 206°
2026-05-07 12:59 25.67308 32.70268 293 ft 12 kts 205°
2026-05-07 13:00 25.67228 32.70226 292 ft 13 kts 205°
2026-05-07 13:00 25.67155 32.70185 290 ft 11 kts 210°
2026-05-07 13:00 25.67083 32.70185 291 ft 12 kts 132°
2026-05-07 13:00 25.67042 32.70278 293 ft 15 kts 116°
2026-05-07 13:01 25.66999 32.70376 291 ft 12 kts 116°
2026-05-07 13:01 25.66921 32.70381 291 ft 13 kts 200°
2026-05-07 13:01 25.66829 32.70340 292 ft 15 kts 202°
2026-05-07 13:01 25.66738 32.70298 294 ft 13 kts 202°
2026-05-07 13:02 25.66646 32.70256 294 ft 15 kts 202°
2026-05-07 13:02 25.66538 32.70206 295 ft 18 kts 202°
2026-05-07 13:02 25.66448 32.70164 295 ft 12 kts 203°
2026-05-07 13:02 25.66366 32.70127 298 ft 14 kts 203°
2026-05-07 13:03 25.66270 32.70082 298 ft 16 kts 203°
2026-05-07 13:03 25.66161 32.70031 301 ft 17 kts 202°
2026-05-07 13:03 25.66044 32.69978 299 ft 17 kts 202°
2026-05-07 13:03 25.65953 32.69940 300 ft 11 kts 189°
2026-05-07 13:04 25.65895 32.69994 302 ft 13 kts 114°
2026-05-07 13:04 25.65877 32.70069 300 ft 9 kts 75°
2026-05-07 13:04 25.65915 32.70099 301 ft 0 kts 22°
2026-05-07 13:04 25.66063 32.70167 299 ft 61 kts 22°
2026-05-07 13:05 25.66674 32.70448 295 ft 126 kts 22°
2026-05-07 13:05 25.67628 32.70887 438 ft 161 kts 21°
2026-05-07 13:05 25.68687 32.71410 1069 ft 168 kts 20°
2026-05-07 13:05 25.69729 32.71905 1948 ft 156 kts 17°
2026-05-07 13:06 25.70739 32.72348 2459 ft 166 kts 24°
2026-05-07 13:06 25.71716 32.73181 2801 ft 189 kts 40°
2026-05-07 13:06 25.72712 32.74266 3148 ft 214 kts 40°
2026-05-07 13:06 25.73837 32.75480 3587 ft 237 kts 39°
2026-05-07 13:07 25.75322 32.76377 4085 ft 254 kts
2026-05-07 13:07 25.77093 32.76211 4889 ft 260 kts 341°
2026-05-07 13:07 25.78830 32.75601 5842 ft 264 kts 342°
2026-05-07 13:07 25.80624 32.75038 6715 ft 271 kts 343°
2026-05-07 13:08 25.82464 32.74489 7540 ft 276 kts 342°
2026-05-07 13:08 25.84342 32.73934 8356 ft 282 kts 342°
2026-05-07 13:08 25.86252 32.73367 9180 ft 287 kts 343°
2026-05-07 13:08 25.88200 32.72781 9995 ft 292 kts 342°
2026-05-07 13:09 25.90213 32.72165 10419 ft 312 kts 342°
2026-05-07 13:09 25.92378 32.71494 10685 ft 334 kts 342°
2026-05-07 13:09 25.94652 32.70790 11227 ft 343 kts 342°
2026-05-07 13:09 25.96938 32.70088 11909 ft 348 kts 343°
2026-05-07 13:10 25.99282 32.69368 12625 ft 351 kts 342°
2026-05-07 13:10 26.01647 32.68640 13372 ft 355 kts 343°
2026-05-07 13:10 26.04077 32.67891 14106 ft 359 kts 343°
2026-05-07 13:10 26.06456 32.67157 14794 ft 361 kts 343°
2026-05-07 13:11 26.08890 32.66406 15431 ft 365 kts 342°
2026-05-07 13:11 26.11347 32.65645 16086 ft 368 kts 342°
2026-05-07 13:11 26.13827 32.64876 16749 ft 372 kts 342°
2026-05-07 13:11 26.16328 32.64097 17415 ft 375 kts 342°
2026-05-07 13:12 26.18854 32.63310 18091 ft 379 kts 342°
2026-05-07 13:12 26.21403 32.62519 18702 ft 382 kts 342°
2026-05-07 13:12 26.23975 32.61724 19337 ft 385 kts 342°
2026-05-07 13:12 26.26562 32.60925 20015 ft 387 kts 342°
2026-05-07 13:13 26.29163 32.60121 20668 ft 389 kts 342°
2026-05-07 13:13 26.31783 32.59307 21317 ft 393 kts 342°
2026-05-07 13:13 26.34427 32.58486 21918 ft 396 kts 342°
2026-05-07 13:13 26.37092 32.57657 22493 ft 399 kts 342°
2026-05-07 13:14 26.39774 32.56824 23070 ft 402 kts 342°
2026-05-07 13:14 26.42477 32.55983 23607 ft 405 kts 342°
2026-05-07 13:14 26.45197 32.55137 23849 ft 406 kts 342°
2026-05-07 13:14 26.47931 32.54287 23912 ft 412 kts 342°
2026-05-07 13:15 26.50711 32.53420 23926 ft 416 kts 342°
2026-05-07 13:15 26.53506 32.52549 23925 ft 417 kts 342°
2026-05-07 13:15 26.56305 32.51678 23925 ft 418 kts 342°
2026-05-07 13:15 26.59104 32.50804 23929 ft 418 kts 342°
2026-05-07 13:16 26.61901 32.49930 23927 ft 418 kts 342°
2026-05-07 13:16 26.64698 32.49052 23928 ft 418 kts 342°
2026-05-07 13:16 26.67460 32.48184 23928 ft 418 kts 342°
2026-05-07 13:16 26.70259 32.47309 23929 ft 418 kts 342°
2026-05-07 13:17 26.73060 32.46436 23928 ft 418 kts 342°
2026-05-07 13:17 26.75858 32.45565 23927 ft 418 kts 342°
2026-05-07 13:17 26.78656 32.44689 23927 ft 418 kts 342°
2026-05-07 13:17 26.81454 32.43810 23925 ft 418 kts 342°
2026-05-07 13:18 26.84256 32.42929 23929 ft 418 kts 342°
2026-05-07 13:18 26.87055 32.42051 23930 ft 418 kts 343°
2026-05-07 13:18 26.89856 32.41172 23931 ft 418 kts 342°
2026-05-07 13:18 26.92656 32.40294 23931 ft 418 kts 343°
2026-05-07 13:19 26.95457 32.39414 23935 ft 418 kts 343°
2026-05-07 13:19 26.98258 32.38532 23934 ft 418 kts 342°
2026-05-07 13:19 27.01056 32.37652 23932 ft 418 kts 342°
2026-05-07 13:19 27.03857 32.36772 23931 ft 418 kts 343°
2026-05-07 13:20 27.06655 32.35891 23933 ft 418 kts 342°
2026-05-07 13:20 27.09455 32.35010 23935 ft 418 kts 343°
2026-05-07 13:20 27.12255 32.34131 23937 ft 418 kts 343°
2026-05-07 13:20 27.15080 32.33245 23954 ft 426 kts 343°
2026-05-07 13:21 27.17908 32.32353 23942 ft 420 kts 343°
2026-05-07 13:21 27.20709 32.31468 23942 ft 417 kts 343°
2026-05-07 13:21 27.23501 32.30581 23942 ft 417 kts 343°
2026-05-07 13:21 27.26295 32.29694 23942 ft 418 kts 343°
2026-05-07 13:22 27.29092 32.28806 23948 ft 417 kts 343°
2026-05-07 13:22 27.31887 32.27922 23947 ft 417 kts 343°
2026-05-07 13:22 27.34679 32.27041 23948 ft 417 kts 343°
2026-05-07 13:22 27.37475 32.26157 23948 ft 417 kts 343°
2026-05-07 13:23 27.40272 32.25269 23947 ft 418 kts 343°
2026-05-07 13:23 27.43069 32.24381 23960 ft 418 kts 343°
2026-05-07 13:23 27.45869 32.23493 23962 ft 418 kts 343°
2026-05-07 13:23 27.48665 32.22610 23961 ft 417 kts 343°
2026-05-07 13:24 27.51459 32.21725 23961 ft 417 kts 343°
2026-05-07 13:24 27.54253 32.20839 23966 ft 417 kts 343°
2026-05-07 13:24 27.57050 32.19949 23966 ft 417 kts 343°
2026-05-07 13:24 27.59767 32.19082 23970 ft 417 kts 343°
2026-05-07 13:25 27.62636 32.18170 23985 ft 417 kts 343°
2026-05-07 13:25 27.65428 32.17283 23993 ft 417 kts 343°
2026-05-07 13:25 27.68221 32.16394 23990 ft 417 kts 343°
2026-05-07 13:25 27.71011 32.15506 23988 ft 417 kts 343°
2026-05-07 13:26 27.73801 32.14617 23992 ft 417 kts 343°
2026-05-07 13:26 27.76592 32.13726 23994 ft 417 kts 343°
2026-05-07 13:26 27.79380 32.12832 23992 ft 417 kts 343°
2026-05-07 13:26 27.82172 32.11935 23989 ft 417 kts 343°
2026-05-07 13:27 27.84964 32.11042 23996 ft 417 kts 343°
2026-05-07 13:27 27.87757 32.10151 24003 ft 417 kts 343°
2026-05-07 13:27 27.90554 32.09261 24003 ft 418 kts 343°
2026-05-07 13:27 27.93351 32.08367 24003 ft 418 kts 343°
2026-05-07 13:28 27.96148 32.07469 24004 ft 418 kts 343°
2026-05-07 13:28 27.98944 32.06575 24038 ft 417 kts 343°
2026-05-07 13:28 28.01738 32.05685 24042 ft 417 kts 343°
2026-05-07 13:28 28.04527 32.04795 24042 ft 416 kts 343°
2026-05-07 13:29 28.07277 32.03925 24041 ft 416 kts 343°
2026-05-07 13:29 28.10062 32.03052 24039 ft 416 kts 343°
2026-05-07 13:29 28.12852 32.02182 24041 ft 415 kts 343°
2026-05-07 13:29 28.15608 32.01324 24037 ft 415 kts 343°
2026-05-07 13:30 28.18390 32.00457 24031 ft 415 kts 343°
2026-05-07 13:30 28.21173 31.99587 24033 ft 415 kts 343°
2026-05-07 13:30 28.23978 31.98705 24031 ft 415 kts 343°
2026-05-07 13:30 28.26756 31.97828 24034 ft 415 kts 343°
2026-05-07 13:31 28.29534 31.96948 24035 ft 414 kts 343°
2026-05-07 13:31 28.32313 31.96069 24034 ft 415 kts 343°
2026-05-07 13:31 28.35094 31.95195 24033 ft 415 kts 343°
2026-05-07 13:31 28.37839 31.94335 24036 ft 415 kts 343°
2026-05-07 13:32 28.40619 31.93461 24035 ft 414 kts 343°
2026-05-07 13:32 28.43396 31.92588 24032 ft 414 kts 343°
2026-05-07 13:32 28.46176 31.91714 24031 ft 414 kts 343°
2026-05-07 13:32 28.48958 31.90837 24029 ft 414 kts 343°
2026-05-07 13:33 28.51732 31.89961 24035 ft 414 kts 343°
2026-05-07 13:33 28.54512 31.89084 24031 ft 415 kts 343°
2026-05-07 13:33 28.57292 31.88207 24026 ft 415 kts 343°
2026-05-07 13:33 28.60100 31.87320 24026 ft 416 kts 343°
2026-05-07 13:34 28.62890 31.86433 24026 ft 416 kts 343°
2026-05-07 13:34 28.68469 31.84662 24029 ft 416 kts 343°
2026-05-07 13:34 28.70317 31.84079 24032 ft 416 kts 343°
2026-05-07 13:35 28.73109 31.83196 24029 ft 417 kts 343°
2026-05-07 13:35 28.76783 31.82029 23878 ft 407 kts 343°
2026-05-07 13:35 28.79479 31.81175 23654 ft 399 kts 343°
2026-05-07 13:35 28.82146 31.80328 23393 ft 396 kts 343°
2026-05-07 13:36 28.84794 31.79490 23123 ft 394 kts 343°
2026-05-07 13:36 28.86575 31.78927 22947 ft 391 kts 343°
2026-05-07 13:36 28.89185 31.78103 22682 ft 388 kts 343°
2026-05-07 13:36 28.91773 31.77282 22420 ft 384 kts 343°
2026-05-07 13:37 28.94352 31.76459 22157 ft 384 kts 343°
2026-05-07 13:37 28.96924 31.75638 21907 ft 385 kts 343°
2026-05-07 13:37 28.99498 31.74817 21650 ft 382 kts 343°
2026-05-07 13:37 29.02052 31.73999 21396 ft 380 kts 343°
2026-05-07 13:38 29.04589 31.73180 21156 ft 377 kts 343°
2026-05-07 13:38 29.07113 31.72361 20912 ft 377 kts 343°
2026-05-07 13:38 29.09634 31.71541 20659 ft 377 kts 343°
2026-05-07 13:38 29.12152 31.70722 20416 ft 374 kts 343°
2026-05-07 13:39 29.14653 31.69907 20173 ft 373 kts 343°
2026-05-07 13:39 29.17136 31.69100 19936 ft 370 kts 343°
2026-05-07 13:39 29.19613 31.68296 19692 ft 369 kts 343°
2026-05-07 13:39 29.22084 31.67495 19461 ft 369 kts 343°
2026-05-07 13:40 29.24554 31.66695 19224 ft 368 kts 342°
2026-05-07 13:40 29.27006 31.65898 18994 ft 366 kts 343°
2026-05-07 13:40 29.29450 31.65105 18766 ft 363 kts 343°
2026-05-07 13:40 29.31856 31.64241 18541 ft 362 kts 335°
2026-05-07 13:41 29.34011 31.62771 18297 ft 361 kts 325°
2026-05-07 13:41 29.36080 31.61130 18031 ft 362 kts 325°
2026-05-07 13:41 29.38142 31.59482 17776 ft 361 kts 325°
2026-05-07 13:41 29.40190 31.57842 17516 ft 358 kts 325°
2026-05-07 13:42 29.42222 31.56215 17257 ft 355 kts 325°
2026-05-07 13:42 29.44247 31.54591 17002 ft 356 kts 325°
2026-05-07 13:42 29.46263 31.52974 16748 ft 352 kts 325°
2026-05-07 13:42 29.48261 31.51369 16493 ft 351 kts 325°
2026-05-07 13:43 29.50242 31.49767 15882 ft 347 kts 325°
2026-05-07 13:43 29.52203 31.48180 14493 ft 354 kts 325°
2026-05-07 13:43 29.54198 31.46576 13826 ft 341 kts 325°
2026-05-07 13:43 29.56107 31.45040 12995 ft 331 kts 325°
2026-05-07 13:44 29.57933 31.43557 12709 ft 309 kts 325°
2026-05-07 13:44 29.59645 31.42159 12227 ft 297 kts 325°
2026-05-07 13:44 29.61318 31.40785 11811 ft 293 kts 325°
2026-05-07 13:44 29.62958 31.39421 11253 ft 297 kts 324°
2026-05-07 13:45 29.64654 31.38001 10760 ft 300 kts 325°
2026-05-07 13:45 29.66305 31.36617 10320 ft 293 kts 325°
2026-05-07 13:45 29.67940 31.35219 9932 ft 282 kts 325°
2026-05-07 13:45 29.69467 31.33893 9457 ft 279 kts 325°
2026-05-07 13:46 29.71011 31.32554 9065 ft 279 kts 325°
2026-05-07 13:46 29.72589 31.31193 8452 ft 287 kts 324°
2026-05-07 13:46 29.74172 31.29831 7844 ft 281 kts 325°
2026-05-07 13:46 29.75714 31.28484 7234 ft 276 kts 324°
2026-05-07 13:47 29.77235 31.27170 6644 ft 272 kts 326°
2026-05-07 13:47 29.78729 31.25861 6025 ft 268 kts 324°
2026-05-07 13:47 29.80205 31.24569 5401 ft 265 kts 325°
2026-05-07 13:47 29.81663 31.23273 4718 ft 265 kts 325°
2026-05-07 13:48 29.83115 31.21966 4115 ft 262 kts 325°
2026-05-07 13:48 29.84538 31.20693 3672 ft 257 kts 325°
2026-05-07 13:48 29.85981 31.19472 3230 ft 257 kts 335°
2026-05-07 13:48 29.87689 31.18992 2783 ft 255 kts
2026-05-07 13:49 29.89412 31.19331 2524 ft 249 kts 14°
2026-05-07 13:49 29.91080 31.19814 2500 ft 243 kts 15°
2026-05-07 13:49 29.92641 31.20386 2498 ft 229 kts 27°
2026-05-07 13:49 29.93965 31.21291 2488 ft 213 kts 30°
2026-05-07 13:50 29.95184 31.22146 2506 ft 197 kts 30°
2026-05-07 13:50 29.96316 31.22935 2508 ft 184 kts 30°
2026-05-07 13:50 29.97387 31.23681 2503 ft 178 kts 30°
2026-05-07 13:50 29.98360 31.24536 2516 ft 177 kts 42°
2026-05-07 13:51 29.99201 31.25561 2523 ft 173 kts 45°
2026-05-07 13:51 29.99961 31.26545 2521 ft 156 kts 46°
2026-05-07 13:51 30.00636 31.27435 2517 ft 134 kts 45°
2026-05-07 13:51 30.01236 31.28227 2506 ft 129 kts 45°
2026-05-07 13:52 30.01816 31.28994 2507 ft 126 kts 44°
2026-05-07 13:52 30.02398 31.29763 2491 ft 128 kts 45°
2026-05-07 13:52 30.02980 31.30535 2399 ft 127 kts 47°
2026-05-07 13:52 30.03555 31.31299 2275 ft 126 kts 44°
2026-05-07 13:53 30.04127 31.32058 2121 ft 126 kts 44°
2026-05-07 13:53 30.04697 31.32815 1970 ft 124 kts 44°
2026-05-07 13:53 30.05269 31.33575 1804 ft 127 kts 46°
2026-05-07 13:53 30.05832 31.34323 1643 ft 126 kts 44°
2026-05-07 13:54 30.06409 31.35089 1471 ft 123 kts 43°
2026-05-07 13:54 30.06976 31.35843 1314 ft 124 kts 47°
2026-05-07 13:54 30.07537 31.36589 1148 ft 122 kts 47°
2026-05-07 13:54 30.08102 31.37338 990 ft 129 kts 46°
2026-05-07 13:55 30.08679 31.38106 812 ft 129 kts 46°
2026-05-07 13:55 30.09270 31.38893 650 ft 128 kts 49°
2026-05-07 13:55 30.09838 31.39648 481 ft 124 kts 46°
2026-05-07 13:55 30.10381 31.40399 402 ft 112 kts 35°
2026-05-07 13:56 30.10917 31.41132 733 ft 128 kts 41°
2026-05-07 13:56 30.11563 31.41927 1083 ft 143 kts 41°
2026-05-07 13:56 30.12336 31.42812 1376 ft 166 kts 44°
2026-05-07 13:56 30.13146 31.43771 2001 ft 167 kts 45°
2026-05-07 13:57 30.13968 31.44753 2433 ft 173 kts 44°
2026-05-07 13:57 30.14565 31.45954 2506 ft 179 kts 78°
2026-05-07 13:57 30.14305 31.47414 2744 ft 201 kts 118°
2026-05-07 13:57 30.13248 31.48481 2996 ft 213 kts 154°
2026-05-07 13:58 30.11771 31.48727 3236 ft 218 kts 180°
2026-05-07 13:58 30.10230 31.48591 3443 ft 221 kts 185°
2026-05-07 13:58 30.08692 31.48410 3505 ft 223 kts 185°
2026-05-07 13:58 30.07148 31.48221 3509 ft 222 kts 185°
2026-05-07 13:59 30.05637 31.48031 3508 ft 222 kts 185°
2026-05-07 13:59 30.04087 31.47853 3510 ft 225 kts 185°
2026-05-07 13:59 30.02524 31.47682 3508 ft 227 kts 186°
2026-05-07 13:59 30.01052 31.47086 3504 ft 227 kts 218°
2026-05-07 14:00 29.99970 31.45798 3513 ft 222 kts 234°
2026-05-07 14:00 29.99004 31.44398 3521 ft 221 kts 234°
2026-05-07 14:00 29.98088 31.43040 3509 ft 210 kts 236°
2026-05-07 14:00 29.97178 31.41729 3509 ft 208 kts 235°
2026-05-07 14:01 29.96283 31.40428 3509 ft 207 kts 234°
2026-05-07 14:01 29.95421 31.39180 3456 ft 190 kts 234°
2026-05-07 14:01 29.94632 31.38019 3333 ft 178 kts 240°
2026-05-07 14:01 29.94338 31.36715 2993 ft 169 kts 285°
2026-05-07 14:02 29.94744 31.35384 2726 ft 186 kts 301°
2026-05-07 14:02 29.95314 31.34057 2528 ft 175 kts 303°
2026-05-07 14:02 29.95812 31.32893 2509 ft 151 kts 303°
2026-05-07 14:02 29.96250 31.31844 2508 ft 141 kts 303°
2026-05-07 14:03 29.96683 31.30852 2500 ft 134 kts 314°
2026-05-07 14:03 29.97345 31.30160 2506 ft 128 kts 331°
2026-05-07 14:03 29.98080 31.29606 2507 ft 125 kts 334°
2026-05-07 14:03 29.98862 31.29220 2500 ft 121 kts 359°
2026-05-07 14:04 29.99686 31.29398 2516 ft 123 kts 16°
2026-05-07 14:04 30.00518 31.29661 2511 ft 125 kts 16°
2026-05-07 14:04 30.01364 31.29924 2511 ft 126 kts 16°
2026-05-07 14:04 30.02216 31.30189 2510 ft 127 kts 17°
2026-05-07 14:05 30.02994 31.30596 2416 ft 124 kts 39°
2026-05-07 14:05 30.03580 31.31334 2282 ft 125 kts 45°
2026-05-07 14:05 30.04147 31.32086 2119 ft 124 kts 45°
2026-05-07 14:05 30.04714 31.32838 1960 ft 126 kts 46°
2026-05-07 14:06 30.05287 31.33599 1800 ft 125 kts 44°
2026-05-07 14:06 30.05855 31.34353 1636 ft 124 kts 44°
2026-05-07 14:06 30.06418 31.35101 1466 ft 124 kts 43°
2026-05-07 14:06 30.06984 31.35853 1314 ft 123 kts 47°
2026-05-07 14:07 30.07544 31.36598 1150 ft 123 kts 46°
2026-05-07 14:07 30.08107 31.37346 990 ft 124 kts 47°
2026-05-07 14:07 30.08687 31.38117 813 ft 129 kts 44°
2026-05-07 14:07 30.09268 31.38890 655 ft 125 kts 48°
2026-05-07 14:08 30.09835 31.39644 482 ft 123 kts 45°
2026-05-07 14:08 30.10374 31.40373 392 ft 109 kts 42°
2026-05-07 14:08 30.10774 31.40902 387 ft 64 kts 49°
2026-05-07 14:08 30.10970 31.41162 389 ft 28 kts 49°
2026-05-07 14:09 30.11091 31.41325 389 ft 23 kts 49°
2026-05-07 14:09 30.11199 31.41465 388 ft 24 kts 45°
2026-05-07 14:09 30.11308 31.41550 388 ft 16 kts 21°
2026-05-07 14:09 30.11405 31.41594 388 ft 15 kts 21°
2026-05-07 14:10 30.11504 31.41625 389 ft 9 kts 356°
2026-05-07 14:10 30.11516 31.41624 389 ft 3 kts 352°
2026-05-07 14:10 30.11520 31.41623 389 ft 1 kts 348°
2026-05-07 14:10 30.11539 31.41609 389 ft 6 kts 320°
2026-05-07 14:11 30.11550 31.41557 389 ft 8 kts 265°
2026-05-07 14:11 30.11514 31.41494 389 ft 11 kts 230°
2026-05-07 14:11 30.11460 31.41423 389 ft 11 kts 229°
2026-05-07 14:11 30.11402 31.41345 389 ft 14 kts 229°
2026-05-07 14:12 30.11344 31.41269 389 ft 13 kts 229°
2026-05-07 14:12 30.11279 31.41183 389 ft 16 kts 230°
2026-05-07 14:12 30.11206 31.41086 389 ft 13 kts 229°
2026-05-07 14:12 30.11150 31.41011 389 ft 14 kts 229°
2026-05-07 14:13 30.11081 31.40919 389 ft 17 kts 228°
2026-05-07 14:13 30.10998 31.40809 388 ft 20 kts 229°
2026-05-07 14:13 30.10901 31.40679 388 ft 22 kts 224°
2026-05-07 14:13 30.10830 31.40583 388 ft 16 kts 230°
2026-05-07 14:14 30.10749 31.40475 387 ft 20 kts 229°
2026-05-07 14:14 30.10683 31.40387 385 ft 14 kts 230°
2026-05-07 14:14 30.10675 31.40319 387 ft 9 kts 301°
2026-05-07 14:14 30.10693 31.40250 388 ft 9 kts 243°
2026-05-07 14:15 30.10654 31.40190 384 ft 6 kts 230°
2026-05-07 14:15 30.10618 31.40142 384 ft 10 kts 229°
2026-05-07 14:15 30.10561 31.40066 379 ft 17 kts 229°
2026-05-07 14:15 30.10503 31.39988 379 ft 11 kts 229°
2026-05-07 14:16 30.10480 31.39902 379 ft 13 kts 279°
2026-05-07 14:16 30.10544 31.39844 374 ft 5 kts 342°
2026-05-07 14:16 30.10571 31.39835 373 ft 7 kts 346°
2026-05-07 14:16 30.10642 31.39814 370 ft 13 kts 345°
2026-05-07 14:17 30.10718 31.39791 373 ft 10 kts 346°
2026-05-07 14:17 30.10765 31.39813 370 ft 9 kts 62°
2026-05-07 14:17 30.10778 31.39861 370 ft 5 kts 75°
2026-05-07 14:17 30.10780 31.39870 372 ft 0 kts 75°
2026-05-07 14:18 30.10780 31.39871 372 ft 0 kts 75°